Date String (YYYY-MM-DD hh:mm:ss) UTC,Instrument flags,absolute air pressure of the measurement (hPa),sample flow rate (lpm),inlet stack bypass flow (lpm),air temperature of the measurement (°C),ambient temperature measured by the external sensor (°C),aerosol sample conditioner tube jacket temperature (°C),OPC LED temperature (°C),internal box temperature (°C),relative humidity of the measurement (%),span deviation,mass concentration of particles derived from Lorenz-Mie calculation of OPC scattering (μg/m³),mass concentration of particles derived from Lorenz-Mie calculation of OPC scattering (μg/m³),mass concentration of particles derived from Lorenz-Mie calculation of OPC scattering (μg/m³)
DateTimeUTC,F1_M11,P_M11,Q1_M11,Q2_M11,T1_M11,T2_M11,T3_M11,T4_M11,T5_M11,U1_M11,ZSPAN_M11,X0_M11,X2_M11,X1_M11
2024-05-14 15:00:00,SystemResetWarning,0825.4,5.00,000.00,025.2,024.7,000.0,033.2,026.9,019.5,0000.0,0004.12,0002.47,0002.04
2024-05-14 15:01:00,SystemResetWarning,0825.5,5.00,000.00,025.2,024.7,000.0,033.2,027.0,020.0,0000.0,0004.04,0002.49,0002.05
2024-05-14 15:02:00,SystemResetWarning,0825.5,5.00,000.00,025.2,024.8,000.0,033.3,027.0,020.0,0000.0,0004.92,0002.49,0002.06
2024-05-14 15:03:00,SystemResetWarning,0825.5,5.00,000.00,025.3,024.8,000.0,033.3,027.1,021.4,0000.0,0004.94,0002.51,0002.08
2024-05-14 15:04:00,SystemResetWarning,0825.5,5.00,000.00,025.3,024.9,000.0,033.3,027.1,021.1,0000.0,0004.95,0002.52,0002.09
2024-05-14 15:05:00,SystemResetWarning,0825.4,4.99,000.00,025.3,024.6,000.0,033.4,026.9,020.0,0000.0,0005.01,0002.55,0002.11
2024-05-14 15:06:00,SystemResetWarning,0825.4,5.00,000.00,025.1,022.8,000.0,033.5,026.0,021.1,0000.0,0005.11,0002.57,0002.13
2024-05-14 15:07:00,SystemResetWarning,0825.4,5.00,000.00,024.7,021.9,000.0,033.5,025.5,021.6,0000.0,0005.18,0002.55,0002.14
2024-05-14 15:08:00,SystemResetWarning,0825.4,5.02,000.00,024.6,022.3,000.0,033.4,025.6,021.2,0000.0,0006.36,0002.50,0002.12
2024-05-14 15:09:00,SystemResetWarning,0825.3,4.99,000.00,024.6,022.6,000.0,033.3,025.8,021.0,0000.0,0006.19,0002.45,0002.09
2024-05-14 15:10:00,SystemResetWarning,0825.4,4.99,000.00,024.6,022.9,000.0,033.2,026.0,021.5,0000.0,0006.27,0002.47,0002.09
2024-05-14 15:11:00,SystemResetWarning,0825.4,5.00,000.00,024.6,023.2,000.0,033.1,026.2,021.2,0000.0,0006.23,0002.50,0002.08
2024-05-14 15:12:00,SystemResetWarning,0825.4,5.00,000.00,024.7,023.5,000.0,033.0,026.3,020.8,0000.0,0006.24,0002.50,0002.07
2024-05-14 15:13:00,SystemResetWarning,0825.3,5.01,000.00,024.7,023.7,000.0,033.0,026.4,020.5,0000.0,0005.53,0002.50,0002.08
2024-05-14 15:14:00,SystemResetWarning,0825.3,4.98,000.00,024.8,023.9,000.0,033.0,026.5,021.3,0000.0,0005.90,0002.52,0002.09
2024-05-14 15:15:00,SystemResetWarning,0825.3,5.01,000.00,024.8,024.0,000.0,033.0,026.6,022.0,0000.0,0006.81,0002.53,0002.10
2024-05-14 15:16:00,SystemResetWarning,0825.2,5.00,000.00,024.9,024.1,000.0,033.0,026.7,020.9,0000.0,0007.31,0002.58,0002.10
2024-05-14 15:17:00,SystemResetWarning,0825.3,5.01,000.00,024.9,024.3,000.0,033.0,026.7,021.3,0000.0,0007.22,0002.59,0002.12
2024-05-14 15:18:00,SystemResetWarning,0825.2,5.01,000.00,025.0,024.4,000.0,033.1,026.7,021.4,0000.0,0007.18,0002.58,0002.11
2024-05-14 15:19:00,SystemResetWarning,0825.3,5.00,000.00,025.0,024.5,000.0,033.1,026.8,021.1,0000.0,0006.08,0002.67,0002.11
2024-05-14 15:20:00,SystemResetWarning,0825.2,4.99,000.00,025.1,024.5,000.0,033.1,026.9,022.2,0000.0,0006.28,0002.80,0002.12
2024-05-14 15:21:00,SystemResetWarning,0825.3,4.99,000.00,025.1,024.6,000.0,033.1,026.9,021.4,0000.0,0006.40,0002.84,0002.13
2024-05-14 15:22:00,SystemResetWarning,0825.2,5.00,000.00,025.2,024.7,000.0,033.2,027.0,022.2,0000.0,0006.44,0002.90,0002.15
2024-05-14 15:23:00,SystemResetWarning,0825.2,5.00,000.00,025.2,024.8,000.0,033.2,027.0,021.5,0000.0,0006.38,0002.90,0002.16
2024-05-14 15:24:00,SystemResetWarning,0825.2,5.00,000.00,025.3,024.8,000.0,033.2,027.1,019.7,0000.0,0007.05,0002.92,0002.17
2024-05-14 15:25:00,SystemResetWarning,0825.2,4.99,000.00,025.2,024.2,000.0,033.3,026.7,020.2,0000.0,0007.09,0002.95,0002.19
2024-05-14 15:26:00,SystemResetWarning,0825.1,5.00,000.00,024.9,022.3,000.0,033.4,025.8,020.2,0000.0,0006.14,0002.98,0002.21
2024-05-14 15:27:00,SystemResetWarning,0825.1,5.01,000.00,024.6,021.9,000.0,033.4,025.5,020.4,0000.0,0005.59,0002.99,0002.24
2024-05-14 15:28:00,SystemResetWarning,0825.2,5.00,000.00,024.5,022.3,000.0,033.3,025.6,021.1,0000.0,0005.68,0003.05,0002.26
2024-05-14 15:29:00,SystemResetWarning,0825.2,4.99,000.00,024.5,022.6,000.0,033.2,025.9,021.1,0000.0,0005.80,0003.10,0002.28
2024-05-14 15:30:00,SystemResetWarning,0825.1,5.00,000.00,024.6,022.9,000.0,033.1,026.1,021.4,0000.0,0005.81,0003.07,0002.30
2024-05-14 15:31:00,SystemResetWarning,0825.1,5.01,000.00,024.6,023.2,000.0,033.0,026.3,020.8,0000.0,0005.62,0003.00,0002.31
2024-05-14 15:32:00,SystemResetWarning,0825.0,5.00,000.00,024.7,023.5,000.0,033.0,026.4,020.0,0000.0,0005.60,0002.98,0002.32
2024-05-14 15:33:00,SystemResetWarning,0825.1,5.00,000.00,024.7,023.7,000.0,033.0,026.5,019.5,0000.0,0006.32,0002.91,0002.33
2024-05-14 15:34:00,SystemResetWarning,0825.1,5.00,000.00,024.8,023.9,000.0,033.0,026.5,019.5,0000.0,0006.92,0002.94,0002.35
2024-05-14 15:35:00,SystemResetWarning,0825.1,5.00,000.00,024.8,024.0,000.0,033.0,026.6,019.8,0000.0,0006.15,0002.95,0002.36
2024-05-14 15:36:00,SystemResetWarning,0825.1,5.00,000.00,024.9,024.2,000.0,033.0,026.7,019.6,0000.0,0005.90,0002.96,0002.35
2024-05-14 15:37:00,SystemResetWarning,0825.1,5.01,000.00,024.9,024.3,000.0,033.0,026.7,018.9,0000.0,0006.08,0002.95,0002.36
2024-05-14 15:38:00,SystemResetWarning,0825.0,5.00,000.00,025.0,024.4,000.0,033.0,026.8,018.3,0000.0,0006.07,0002.93,0002.35
2024-05-14 15:39:00,SystemResetWarning,0825.0,5.01,000.00,025.0,024.5,000.0,033.0,026.8,018.7,0000.0,0006.00,0002.89,0002.33
2024-05-14 15:40:00,SystemResetWarning,0824.9,4.99,000.00,025.1,024.6,000.0,033.1,026.9,019.4,0000.0,0005.98,0002.88,0002.33
2024-05-14 15:41:00,SystemResetWarning,0824.9,4.99,000.00,025.1,024.6,000.0,033.1,027.0,019.0,0000.0,0005.83,0002.83,0002.33
2024-05-14 15:42:00,SystemResetWarning,0825.0,5.02,000.00,025.2,024.7,000.0,033.2,027.0,018.3,0000.0,0006.35,0002.83,0002.34
2024-05-14 15:43:00,SystemResetWarning,0825.0,4.99,000.00,025.2,024.7,000.0,033.2,027.0,018.2,0000.0,0006.48,0002.87,0002.35
2024-05-14 15:44:00,SystemResetWarning,0825.0,4.99,000.00,025.1,023.4,000.0,033.3,026.4,018.9,0000.0,0005.74,0002.92,0002.35
2024-05-14 15:45:00,SystemResetWarning,0824.9,5.00,000.00,024.7,021.8,000.0,033.3,025.5,020.0,0000.0,0004.91,0002.88,0002.35
2024-05-14 15:46:00,SystemResetWarning,0825.0,5.01,000.00,024.5,021.9,000.0,033.3,025.5,020.3,0000.0,0004.98,0002.89,0002.34
2024-05-14 15:47:00,SystemResetWarning,0824.9,5.01,000.00,024.5,022.3,000.0,033.1,025.6,020.2,0000.0,0005.18,0002.88,0002.33
2024-05-14 15:48:00,SystemResetWarning,0824.9,4.99,000.00,024.5,022.7,000.0,033.0,025.9,020.0,0000.0,0005.07,0002.89,0002.33
2024-05-14 15:49:00,SystemResetWarning,0824.9,5.00,000.00,024.5,023.0,000.0,033.0,026.1,019.2,0000.0,0006.00,0002.95,0002.34
2024-05-14 15:50:00,SystemResetWarning,0824.9,5.00,000.00,024.5,023.2,000.0,032.9,026.2,019.4,0000.0,0006.26,0002.98,0002.36
2024-05-14 15:51:00,SystemResetWarning,0824.9,5.00,000.00,024.6,023.5,000.0,032.9,026.3,019.2,0000.0,0006.21,0002.97,0002.37
2024-05-14 15:52:00,SystemResetWarning,0824.9,5.00,000.00,024.6,023.7,000.0,032.9,026.4,019.2,0000.0,0006.21,0003.02,0002.39
2024-05-14 15:53:00,SystemResetWarning,0824.9,5.01,000.00,024.7,023.8,000.0,032.9,026.5,018.5,0000.0,0005.77,0003.07,0002.39
2024-05-14 15:54:00,SystemResetWarning,0824.9,5.00,000.00,024.7,024.0,000.0,032.9,026.6,018.4,0000.0,0006.04,0003.09,0002.40
2024-05-14 15:55:00,SystemResetWarning,0824.9,5.00,000.00,024.8,024.1,000.0,032.9,026.6,019.2,0000.0,0006.27,0003.11,0002.41
2024-05-14 15:56:00,SystemResetWarning,0824.9,4.99,000.00,024.9,024.2,000.0,032.9,026.7,019.5,0000.0,0006.38,0003.12,0002.42
2024-05-14 15:57:00,SystemResetWarning,0824.9,5.00,000.00,024.9,024.3,000.0,032.9,026.7,019.5,0000.0,0006.36,0003.12,0002.43
2024-05-14 15:58:00,SystemResetWarning,0824.9,5.00,000.00,025.0,024.4,000.0,033.0,026.8,018.2,0000.0,0006.22,0003.14,0002.44
2024-05-14 15:59:00,SystemResetWarning,0824.9,5.00,000.00,025.0,024.5,000.0,033.0,026.9,018.8,0000.0,0006.32,0003.16,0002.45
